Change the Weather History Date:

Friday, July 19, 2013

  Actual Average Record
Temperature  
Mean Temperature 88 °F 76 °F  
Max Temperature 95 °F 84 °F 97 °F (1963)
Min Temperature 80 °F 69 °F 61 °F (1962)
Degree Days  
Heating Degree Days 0 0  
Month to date heating degree days 0 0  
Since 1 June heating degree days 10 21  
Since 1 July heating degree days 0 0  
Cooling Degree Days 23 11  
Month to date cooling degree days 309 202  
Year to date cooling degree days 515 420  
Since 1 June cooling degree days 489 385  
Growing Degree Days 38 (Base 50)    
Moisture  
Dew Point 76 °F    
Average Humidity 71    
Maximum Humidity 85    
Minimum Humidity 56    
Precipitation  
Precipitation 0.00 in 0.14 in 1.62 in (1988)
Month to date precipitation 1.65 2.45  
Year to date precipitation 22.85 23.65  
Snow  
Snow 0.00 in 0.00 in - ()
Month to date snowfall 0.0 0.0  
Since 1 July snowfall 0.0 0.0  
Snow Depth 0.00 in    
Sea Level Pressure  
Sea Level Pressure 29.90 in    
Wind  
Wind Speed 12 mph (SSW)    
Max Wind Speed 21 mph    
Max Gust Speed 25 mph    
Visibility 8 miles    
Events      
T = Trace of Precipitation, MM = Missing Value Source: NWS Daily Summary

Daily Weather History Graph

Daily Weather History Graph

Search for Another Location

Airport or City:

Trip Planner

Search our weather history database for the weather conditions in past years. The results will help you decide how hot, cold, wet, or windy it might be!

Date:

Astronomy

Jul. 19, 2013 Rise Set
Actual Time 5:40 AM EDT 8:21 PM EDT
Civil Twilight 5:08 AM EDT 8:53 PM EDT
Nautical Twilight 4:28 AM EDT 9:33 PM EDT
Astronomical Twilight 3:42 AM EDT 10:18 PM EDT
Moon 5:21 PM EDT (7/19) 2:19 AM EDT (7/19)
Length of Visible Light 15h 45m
Length of Day
14h 41m
Waxing Gibbous, 86% of the Moon is Illuminated
Jul 19
Waxing Gibbous
Jul 22
Full
Jul 29
Last Quarter
Aug 6
New
Aug 14
First Quarter

Hourly Weather History & Observations

Time (EDT) Temp. Heat Index Dew Point Humidity Pressure Visibility Wind Dir Wind Speed Gust Speed Precip Events Conditions
12:51 AM 82.9 °F 90.2 °F 75.0 °F 77% 29.98 in 10.0 mi WSW 10.4 mph - N/A   Mostly Cloudy
1:51 AM 82.9 °F 90.8 °F 75.9 °F 79% 29.98 in 10.0 mi SW 6.9 mph - N/A   Scattered Clouds
2:51 AM 82.9 °F 90.8 °F 75.9 °F 79% 29.97 in 10.0 mi WSW 9.2 mph - N/A   Scattered Clouds
3:51 AM 82.0 °F 89.4 °F 75.9 °F 82% 29.96 in 10.0 mi WSW 8.1 mph - N/A   Scattered Clouds
4:51 AM 81.0 °F 87.3 °F 75.9 °F 85% 29.96 in 10.0 mi SW 9.2 mph - N/A   Scattered Clouds
5:51 AM 80.1 °F 85.4 °F 75.9 °F 87% 29.96 in 7.0 mi SW 9.2 mph - N/A   Scattered Clouds
6:51 AM 82.0 °F 90.2 °F 77.0 °F 85% 29.96 in 6.0 mi SW 9.2 mph - N/A   Haze
7:51 AM 84.0 °F 93.7 °F 77.0 °F 79% 29.97 in 6.0 mi SW 13.8 mph - N/A   Haze
8:51 AM 86.0 °F 96.9 °F 77.0 °F 74% 29.97 in 6.0 mi SW 11.5 mph - N/A   Haze
9:51 AM 88.0 °F 101.3 °F 78.1 °F 72% 29.96 in 6.0 mi SSW 10.4 mph - N/A   Haze
10:51 AM 91.0 °F 104.2 °F 77.0 °F 63% 29.95 in 7.0 mi SSW 12.7 mph - N/A   Partly Cloudy
11:51 AM 93.0 °F 106.7 °F 77.0 °F 59% 29.94 in 7.0 mi SSW 13.8 mph - N/A   Partly Cloudy
12:51 PM 93.9 °F 108.4 °F 77.0 °F 58% 29.92 in 7.0 mi South 12.7 mph - N/A   Scattered Clouds
1:51 PM 93.0 °F 105.3 °F 75.9 °F 57% 29.90 in 8.0 mi South 13.8 mph - N/A   Scattered Clouds
2:51 PM 93.0 °F 105.3 °F 75.9 °F 57% 29.88 in 9.0 mi South 15.0 mph - N/A   Scattered Clouds
3:51 PM 93.0 °F 104.6 °F 75.0 °F 56% 29.85 in 8.0 mi South 16.1 mph - N/A   Scattered Clouds
4:51 PM 89.1 °F 100.2 °F 75.9 °F 65% 29.83 in 9.0 mi SSW 15.0 mph - N/A   Partly Cloudy
5:51 PM 87.1 °F 97.3 °F 75.9 °F 69% 29.81 in 9.0 mi South 16.1 mph - N/A   Scattered Clouds
6:51 PM 86.0 °F 95.1 °F 75.0 °F 70% 29.81 in 9.0 mi South 13.8 mph - N/A   Scattered Clouds
7:51 PM 84.0 °F 91.9 °F 75.0 °F 74% 29.82 in 8.0 mi South 10.4 mph - N/A   Scattered Clouds
8:51 PM 82.9 °F 90.2 °F 75.0 °F 77% 29.85 in 8.0 mi SSW 13.8 mph - N/A   Scattered Clouds
9:51 PM 84.0 °F 91.9 °F 75.0 °F 74% 29.86 in 8.0 mi SSW 8.1 mph - N/A   Partly Cloudy
10:51 PM 86.0 °F 93.8 °F 73.9 °F 67% 29.83 in 8.0 mi SW 13.8 mph - N/A   Mostly Cloudy
11:51 PM 82.9 °F 89.4 °F 73.9 °F 74% 29.82 in 8.0 mi SSW 9.2 mph - N/A   Mostly Cloudy